When you browse on this site, cookies collect data to enhance your experience and personalize the content and advertising you see.
Visit our Privacy Policy to learn more. By continuing to use the site, you agree to this use of cookies and data.
  • In Austria
  • List of Countries
  • For 7 days
  • Water Temperature
  • Weather Map
  • News
  • Weather Widgets
  • user-avatar
    Login

    Hourly Weather Guanare

    Today, 28 January, Tuesday

    Time Temperature Precipitation Wind Pressure Humidity
    00:00 +27°C° 0 mm 1 mps 742 mmHg 67%
    01:00 +27°C° 0 mm 1 mps 742 mmHg 66%
    02:00 +27°C° 0 mm 1 mps 742 mmHg 67%
    03:00 +26°C° 0 mm 1 mps 741 mmHg 69%
    04:00 +26°C° 0 mm 1 mps 741 mmHg 70%
    05:00 +27°C° 0 mm 1 mps 742 mmHg 70%
    06:00 +27°C° 0 mm 1 mps 742 mmHg 69%
    07:00 +27°C° 0 mm 1 mps 743 mmHg 69%
    08:00 +28°C° 0 mm 1 mps 743 mmHg 66%
    09:00 +29°C° 0 mm 1 mps 743 mmHg 64%
    10:00 +30°C° 0 mm 1 mps 744 mmHg 62%
    11:00 +32°C° 0 mm 1 mps 743 mmHg 56%
    12:00 +35°C° 0 mm 2 mps 742 mmHg 49%
    13:00 +36°C° 0 mm 2 mps 741 mmHg 43%
    14:00 +36°C° 0 mm 2 mps 741 mmHg 43%
    15:00 +35°C° 0 mm 1 mps 740 mmHg 44%
    16:00 +35°C° 0 mm 1 mps 740 mmHg 44%
    17:00 +33°C° 0 mm 1 mps 740 mmHg 50%
    18:00 +31°C° 0 mm 1 mps 740 mmHg 55%
    19:00 +29°C° 0 mm 1 mps 740 mmHg 61%
    20:00 +29°C° 0 mm 1 mps 741 mmHg 63%
    21:00 +28°C° 0 mm 2 mps 741 mmHg 65%
    22:00 +28°C° 0 mm 2 mps 742 mmHg 67%
    23:00 +27°C° 0 mm 1 mps 741 mmHg 68%

    Tomorrow, 29 January, Wednesday

    Time Temperature Precipitation Wind Pressure Humidity
    00:00 +27°C° 0 mm 1 mps 741 mmHg 69%
    01:00 +27°C° 0 mm 1 mps 741 mmHg 69%
    02:00 +26°C° 0 mm 1 mps 741 mmHg 71%
    03:00 +26°C° 0 mm 1 mps 741 mmHg 73%
    04:00 +25°C° 0 mm 1 mps 741 mmHg 74%
    05:00 +26°C° 0 mm 1 mps 741 mmHg 73%
    06:00 +26°C° 0 mm 1 mps 742 mmHg 71%
    07:00 +26°C° 0 mm 1 mps 742 mmHg 70%
    08:00 +28°C° 0 mm 1 mps 743 mmHg 62%
    09:00 +31°C° 0 mm 2 mps 743 mmHg 54%
    10:00 +34°C° 0 mm 2 mps 743 mmHg 46%
    11:00 +35°C° 0 mm 2 mps 743 mmHg 41%
    12:00 +36°C° 0 mm 2 mps 742 mmHg 37%
    13:00 +37°C° 0 mm 2 mps 741 mmHg 33%
    14:00 +37°C° 0 mm 2 mps 741 mmHg 34%
    15:00 +36°C° 0 mm 2 mps 740 mmHg 35%
    16:00 +35°C° 0 mm 1 mps 739 mmHg 36%
    17:00 +33°C° 0 mm 1 mps 740 mmHg 42%
    18:00 +31°C° 0 mm 1 mps 740 mmHg 49%
    19:00 +29°C° 0 mm 1 mps 740 mmHg 55%
    20:00 +28°C° 0 mm 1 mps 741 mmHg 57%
    21:00 +28°C° 0 mm 1 mps 741 mmHg 60%
    22:00 +27°C° 0 mm 1 mps 741 mmHg 63%
    23:00 +27°C° 0 mm 1 mps 741 mmHg 64%

    Day after tomorrow, 30 January, Thursday

    Time Temperature Precipitation Wind Pressure Humidity
    00:00 +26°C° 0 mm 1 mps 741 mmHg 66%
    01:00 +26°C° 0 mm 1 mps 741 mmHg 67%
    02:00 +25°C° 0 mm 1 mps 741 mmHg 69%
    03:00 +24°C° 0 mm 1 mps 741 mmHg 70%
    04:00 +24°C° 0 mm 1 mps 741 mmHg 72%
    05:00 +24°C° 0 mm 1 mps 742 mmHg 70%
    06:00 +25°C° 0 mm 1 mps 742 mmHg 69%
    07:00 +25°C° 0 mm 1 mps 743 mmHg 67%
    08:00 +28°C° 0 mm 1 mps 743 mmHg 57%
    09:00 +31°C° 0 mm 2 mps 743 mmHg 47%
    10:00 +35°C° 0 mm 2 mps 744 mmHg 37%
    11:00 +36°C° 0 mm 2 mps 743 mmHg 35%
    12:00 +37°C° 0 mm 2 mps 742 mmHg 33%
    13:00 +38°C° 0 mm 2 mps 741 mmHg 31%
    14:00 +37°C° 0 mm 2 mps 741 mmHg 31%
    15:00 +37°C° 0 mm 2 mps 740 mmHg 31%
    16:00 +36°C° 0 mm 1 mps 739 mmHg 30%
    17:00 +34°C° 0 mm 1 mps 740 mmHg 36%
    18:00 +31°C° 0 mm 1 mps 740 mmHg 41%
    19:00 +29°C° 0 mm 1 mps 741 mmHg 47%
    20:00 +28°C° 0 mm 1 mps 741 mmHg 49%
    21:00 +28°C° 0 mm 1 mps 741 mmHg 52%
    22:00 +27°C° 0 mm 1 mps 742 mmHg 54%
    23:00 +27°C° 0 mm 1 mps 742 mmHg 55%

    31 January, Friday

    Time Temperature Precipitation Wind Pressure Humidity
    00:00 +27°C° 0 mm 1 mps 741 mmHg 57%
    01:00 +26°C° 0 mm 1 mps 741 mmHg 58%
    02:00 +26°C° 0 mm 1 mps 741 mmHg 58%
    03:00 +26°C° 0 mm 1 mps 741 mmHg 59%
    04:00 +26°C° 0 mm 1 mps 741 mmHg 59%
    05:00 +26°C° 0 mm 1 mps 742 mmHg 61%
    06:00 +27°C° 0 mm 1 mps 742 mmHg 62%
    07:00 +27°C° 0 mm 1 mps 743 mmHg 64%
    08:00 +29°C° 0 mm 1 mps 743 mmHg 59%
    09:00 +31°C° 0 mm 2 mps 744 mmHg 54%
    10:00 +34°C° 0 mm 2 mps 744 mmHg 49%
    11:00 +35°C° 0 mm 2 mps 743 mmHg 46%
    12:00 +37°C° 0 mm 2 mps 742 mmHg 42%
    13:00 +38°C° 0 mm 2 mps 742 mmHg 39%
    14:00 +37°C° 0 mm 2 mps 741 mmHg 39%
    15:00 +37°C° 0 mm 2 mps 740 mmHg 40%
    16:00 +37°C° 0 mm 2 mps 740 mmHg 40%
    17:00 +35°C° 0 mm 2 mps 740 mmHg 45%
    18:00 +32°C° 0 mm 1 mps 741 mmHg 51%
    19:00 +30°C° 0 mm 1 mps 741 mmHg 56%
    20:00 +29°C° 0 mm 1 mps 741 mmHg 59%
    21:00 +29°C° 0 mm 1 mps 742 mmHg 61%
    22:00 +28°C° 0 mm 1 mps 742 mmHg 63%
    23:00 +28°C° 0 mm 1 mps 742 mmHg 63%

    1 February, Saturday

    Time Temperature Precipitation Wind Pressure Humidity
    00:00 +28°C° 0 mm 1 mps 742 mmHg 62%
    01:00 +28°C° 0 mm 1 mps 742 mmHg 61%
    02:00 +28°C° 0 mm 1 mps 742 mmHg 63%
    03:00 +27°C° 0 mm 1 mps 742 mmHg 65%
    04:00 +27°C° 0 mm 1 mps 741 mmHg 68%
    05:00 +27°C° 0 mm 1 mps 742 mmHg 69%
    06:00 +27°C° 0 mm 1 mps 743 mmHg 70%
    07:00 +27°C° 0 mm 1 mps 743 mmHg 71%
    08:00 +29°C° 0 mm 2 mps 744 mmHg 64%
    09:00 +31°C° 0 mm 2 mps 744 mmHg 57%
    10:00 +34°C° 0 mm 2 mps 744 mmHg 50%
    11:00 +35°C° 0 mm 2 mps 743 mmHg 46%
    12:00 +36°C° 0 mm 2 mps 743 mmHg 42%
    13:00 +38°C° 0 mm 2 mps 742 mmHg 38%
    14:00 +37°C° 0 mm 2 mps 741 mmHg 38%
    15:00 +37°C° 0 mm 2 mps 740 mmHg 38%
    16:00 +37°C° 0 mm 2 mps 740 mmHg 38%
    17:00 +35°C° 0 mm 2 mps 740 mmHg 43%
    18:00 +32°C° 0 mm 1 mps 740 mmHg 49%
    19:00 +30°C° 0 mm 1 mps 740 mmHg 55%
    20:00 +29°C° 0 mm 1 mps 741 mmHg 58%
    21:00 +28°C° 0 mm 1 mps 741 mmHg 60%
    22:00 +28°C° 0 mm 1 mps 742 mmHg 63%
    23:00 +27°C° 0 mm 1 mps 742 mmHg 64%

    2 February, Sunday

    Time Temperature Precipitation Wind Pressure Humidity
    00:00 +27°C° 0 mm 1 mps 741 mmHg 66%
    01:00 +27°C° 0 mm 1 mps 741 mmHg 67%
    02:00 +27°C° 0 mm 1 mps 741 mmHg 68%
    03:00 +26°C° 0 mm 1 mps 741 mmHg 69%
    04:00 +26°C° 0 mm 1 mps 741 mmHg 70%
    05:00 +26°C° 0 mm 1 mps 742 mmHg 70%
    06:00 +27°C° 0 mm 1 mps 742 mmHg 71%
    07:00 +27°C° 0 mm 1 mps 743 mmHg 71%
    08:00 +29°C° 0 mm 2 mps 743 mmHg 64%
    09:00 +30°C° 0 mm 2 mps 743 mmHg 57%
    10:00 +33°C° 0 mm 3 mps 744 mmHg 50%
    11:00 +34°C° 0 mm 2 mps 743 mmHg 47%
    12:00 +35°C° 0 mm 2 mps 742 mmHg 44%
    13:00 +36°C° 0 mm 2 mps 741 mmHg 41%
    14:00 +36°C° 0 mm 2 mps 741 mmHg 39%
    15:00 +36°C° 0 mm 2 mps 740 mmHg 37%
    16:00 +37°C° 0 mm 2 mps 740 mmHg 35%
    17:00 +33°C° 0 mm 1 mps 740 mmHg 40%
    18:00 +31°C° 0 mm 1 mps 740 mmHg 45%
    19:00 +29°C° 0 mm 1 mps 740 mmHg 51%
    20:00 +28°C° 0 mm 1 mps 741 mmHg 54%
    21:00 +27°C° 0 mm 1 mps 741 mmHg 58%
    22:00 +27°C° 0 mm 1 mps 742 mmHg 61%
    23:00 +26°C° 0 mm 1 mps 742 mmHg 62%
    Show more